This is the latest recevied weather packets stored in our database for station/object I1SXT-13. If no packets are shown the sender has not sent any weather packets the latest 10 day(s).
| Time | Temp. | Humidity | Pressure | Rain* | Wind** | Luminosity | Snow |
|---|---|---|---|---|---|---|---|
| 1778093666 | 16.11° C | 82% | 1011.5 hPa | 34.29 mm | - | - | - |
| 1778093369 | 16.11° C | 81% | 1011 hPa | 34.29 mm | - | - | - |
| 1778093065 | 15.56° C | 83% | 1011.4 hPa | 34.29 mm | - | - | - |
| 1778092768 | 16.11° C | 82% | 1011.8 hPa | 34.29 mm | - | - | - |
| 1778092464 | 16.11° C | 82% | 1011.1 hPa | 34.29 mm | - | - | - |
| 1778092167 | 15.56° C | 85% | 1011.2 hPa | 34.29 mm | - | - | - |
| 1778091870 | 15.56° C | 84% | 1011.2 hPa | 34.29 mm | - | - | - |
| 1778091566 | 16.11° C | 83% | 1011.6 hPa | 34.29 mm | - | - | - |
| 1778090964 | 16.11° C | 82% | 1010.8 hPa | 34.29 mm | - | - | - |
| 1778090667 | 16.11° C | 80% | 1011.1 hPa | 34.29 mm | - | - | - |
| 1778090066 | 16.11° C | 79% | 1010.8 hPa | 34.29 mm | - | - | - |
| 1778089769 | 16.11° C | 79% | 1011.5 hPa | 34.29 mm | - | - | - |
| 1778089465 | 16.11° C | 78% | 1011.1 hPa | 34.29 mm | - | - | - |
| 1778089168 | 16.67° C | 77% | 1011 hPa | 34.29 mm | - | - | - |
| 1778088864 | 16.67° C | 77% | 1010.2 hPa | 34.29 mm | - | - | - |
| 1778088567 | 16.67° C | 77% | 1011 hPa | 34.29 mm | - | - | - |
| 1778088269 | 16.67° C | 76% | 1010.6 hPa | 34.29 mm | - | - | - |
| 1778087965 | 16.67° C | 75% | 1011.6 hPa | 34.29 mm | - | - | - |
| 1778087668 | 17.22° C | 76% | 1010.7 hPa | 34.29 mm | - | - | - |
| 1778086770 | 17.22° C | 77% | 1011 hPa | 34.29 mm | - | - | - |
| 1778086466 | 17.22° C | 77% | 1010.7 hPa | 34.29 mm | - | - | - |
| 1778086169 | 16.67° C | 76% | 1011 hPa | 34.29 mm | - | - | - |
| 1778085865 | 16.67° C | 76% | 1010.9 hPa | 34.29 mm | - | - | - |
| 1778085567 | 17.22° C | 78% | 1010.9 hPa | 34.29 mm | - | - | - |
| 1778085264 | 17.22° C | 78% | 1011.1 hPa | 34.29 mm | - | - | - |
* Rain since midnight (hover to see other rain measurements)
** Current wind speed in m/s (hover to see current wind gust speed)